Temperature
8 7 7 7 7 7 6 6 5 5 5 6 6 6 6 6 5 5 5 5 5 4 4 4 3 3 3 3 3 3 3 3 2 2 2 2 2 2
7 7 7 7 6 6 6 6 5 5 4 5 5 5 5 5 5 5 4 4 4 4 3 3 3 3 2 2 2 2 2 2 2 2 2 2 2 2
7 6 6 6 6 6 5 5 5 4 4 4 5 4 4 4 4 4 4 4 4 3 3 2 2 2 2 2 2 2 2 1 1 1 1 1 1 1
6 6 6 6 5 5 5 5 4 4 4 4 4 4 4 4 3 3 3 3 3 3 2 2 2 1 1 1 1 1 1 1 1 1 1 1 1 1
6 6 5 5 5 5 4 4 4 4 3 3 3 3 3 3 3 3 3 2 2 2 2 1 1 1 1 1 1 1 1 0 0 0 0 0 0 -0
5 5 5 5 4 4 4 4 3 3 3 3 3 3 3 2 2 2 2 2 2 1 1 1 1 1 0 0 0 0 0 -0 -0 -0 -0 -1 -1 -1
5 4 4 4 4 3 3 3 3 2 2 2 2 2 2 2 2 1 1 1 1 1 1 0 0 0 -0 -0 -0 -0 -1 -1 -1 -1 -1 -1 -1 -1
4 4 4 4 3 3 3 2 2 2 2 2 2 1 1 1 1 0 0 0 0 0 -0 -0 -0 -0 -0 -1 -1 -1 -1 -1 -2 -2 -2 -2 -2 -2
3 3 3 3 3 3 2 2 2 2 2 1 1 1 1 1 0 0 -0 -0 -1 -1 -1 -1 -1 -1 -1 -1 -1 -2 -2 -2 -2 -2 -2 -2 -2 -2
3 3 3 2 2 2 2 2 2 1 1 1 1 1 1 0 -0 -1 -1 -1 -1 -1 -2 -2 -1 -1 -1 -1 -1 -2 -2 -2 -2 -2 -3 -3 -3 -3
2 2 2 2 1 1 1 1 1 1 1 0 0 0 -0 -0 -1 -1 -1 -2 -2 -2 -2 -2 -2 -2 -1 -1 -2 -2 -2 -3 -3 -3 -3 -3 -3 -3
2 1 1 1 1 0 0 0 0 0 0 0 -0 -0 -0 -1 -1 -1 -2 -2 -3 -3 -3 -3 -3 -3 -3 -2 -2 -2 -3 -3 -3 -3 -3 -3 -3 -4
1 1 1 0 0 -0 -0 -0 -0 -1 -1 -1 -1 -1 -1 -1 -1 -2 -2 -3 -3 -3 -3 -4 -4 -4 -4 -4 -3 -3 -3 -3 -3 -3 -3 -4 -4 -4
0 0 -0 -0 -0 -1 -1 -1 -1 -1 -1 -1 -1 -1 -2 -2 -2 -2 -3 -3 -3 -3 -4 -4 -4 -4 -5 -5 -4 -3 -3 -4 -4 -4 -4 -4 -4 -4
-0 -0 -1 -1 -1 -1 -1 -2 -2 -2 -2 -2 -2 -2 -2 -3 -3 -3 -3 -3 -3 -4 -4 -5 -5 -5 -5 -5 -5 -4 -4 -4 -4 -4 -4 -4 -4 -4
-1 -1 -1 -1 -2 -2 -2 -2 -2 -2 -3 -3 -3 -3 -3 -3 -3 -3 -4 -4 -4 -4 -4 -5 -5 -5 -5 -5 -5 -5 -5 -5 -5 -5 -5 -5 -4 -5
-2 -2 -2 -2 -2 -2 -3 -3 -3 -3 -3 -3 -3 -3 -3 -3 -4 -4 -4 -4 -5 -5 -5 -5 -5 -5 -5 -5 -5 -5 -6 -6 -6 -6 -6 -5 -4 -5
-2 -2 -2 -3 -3 -3 -3 -3 -4 -4 -4 -4 -4 -4 -4 -4 -4 -5 -5 -5 -5 -5 -5 -5 -5 -5 -5 -5 -5 -6 -6 -6 -6 -6 -6 -6 -5 -5
-3 -3 -3 -3 -4 -4 -4 -4 -4 -4 -4 -4 -4 -5 -5 -5 -5 -5 -5 -6 -6 -6 -6 -6 -6 -6 -7 -6 -6 -6 -6 -6 -6 -6 -6 -6 -6 -5
-3 -3 -4 -4 -4 -4 -4 -5 -5 -5 -5 -5 -5 -5 -5 -6 -6 -6 -6 -6 -6 -6 -6 -6 -7 -7 -7 -8 -7 -6 -6 -7 -7 -7 -6 -6 -6 -5
-4 -4 -4 -4 -5 -5 -5 -5 -5 -5 -5 -5 -5 -6 -6 -6 -6 -6 -6 -7 -7 -7 -7 -7 -7 -7 -7 -7 -7 -6 -6 -6 -7 -7 -7 -7 -7 -6
-5 -5 -5 -5 -5 -5 -5 -5 -5 -5 -5 -6 -6 -6 -6 -6 -7 -7 -7 -7 -7 -7 -7 -7 -7 -7 -7 -8 -7 -7 -7 -6 -6 -7 -7 -7 -8 -8
-5 -5 -6 -5 -6 -6 -6 -6 -6 -6 -6 -6 -6 -6 -7 -7 -7 -7 -7 -7 -8 -8 -8 -8 -7 -7 -8 -8 -8 -7 -7 -7 -7 -6 -6 -7 -7 -7
Wind_Speed
3 3 3 2 2 2 2 3 3 4 5 4 3 3 6 6 7 7 8 10 11 11 12 12 13 14 14 14 15 15 15 14 15 15 16 16 17 17
2 2 2 2 2 2 2 2 3 5 5 4 4 3 5 6 7 8 8 10 11 12 12 12 13 13 14 14 15 15 15 15 15 15 16 16 17 17
2 3 3 2 2 2 2 2 3 3 6 5 3 3 3 4 6 7 8 8 8 11 12 12 12 12 13 14 15 15 15 15 15 16 16 16 17 17
3 3 3 2 3 3 3 3 4 4 5 7 4 3 4 4 4 4 6 7 8 10 12 12 12 13 13 14 14 15 15 15 15 16 16 17 17 18
3 3 4 3 3 3 3 3 3 4 3 4 5 3 3 3 3 4 5 5 8 9 11 11 12 13 14 14 15 15 15 15 15 15 16 16 17 17
2 3 3 4 4 4 3 4 3 3 3 3 4 4 4 3 3 4 5 4 5 7 8 10 12 13 14 15 15 14 14 14 15 15 15 16 16 16
2 2 3 3 4 3 3 3 3 3 3 3 4 4 4 3 4 4 6 6 5 3 4 6 8 8 10 13 13 13 14 14 15 15 15 16 15 16
2 2 3 3 3 4 4 4 4 4 4 4 5 5 6 5 4 4 5 5 5 2 4 6 4 6 8 9 13 14 15 15 15 15 16 15 15 16
3 3 3 3 3 3 4 5 5 6 6 5 6 7 6 5 4 5 5 5 6 4 4 6 4 5 7 10 14 14 14 14 14 15 15 15 16 17
3 3 3 3 3 4 3 3 4 4 5 5 5 6 5 4 4 4 5 4 4 3 2 4 4 5 6 9 12 12 13 14 15 15 16 16 17 17
2 2 2 3 5 5 2 3 4 4 5 6 7 6 6 6 4 2 2 3 5 4 2 2 3 5 5 5 8 11 13 14 15 15 16 16 16 15
2 2 3 4 5 5 2 3 4 4 4 4 4 5 5 4 4 2 2 3 4 3 1 2 3 4 4 3 4 8 9 12 14 16 16 16 16 11
2 2 3 5 5 5 4 3 4 4 2 2 3 3 3 3 3 3 3 2 3 4 3 2 3 3 3 5 5 5 5 6 9 11 14 15 16 13
2 2 3 5 5 5 4 4 5 4 1 2 2 3 3 3 3 4 4 4 4 6 6 4 3 4 5 6 5 5 6 7 6 7 8 13 14 16
2 3 4 4 4 3 4 5 5 2 1 2 2 3 3 3 4 4 4 4 4 4 5 5 4 4 4 5 6 6 6 5 5 5 7 8 8 8
1 2 3 4 3 3 4 3 2 2 2 2 3 3 3 2 3 3 3 3 3 4 4 4 5 4 5 6 6 7 6 5 6 7 8 7 8 8
1 1 1 1 2 2 2 2 2 2 2 2 2 3 3 3 3 3 3 3 3 4 4 4 5 6 6 6 5 6 6 6 6 7 8 9 7 7
1 0 1 1 2 2 2 2 2 2 2 2 3 3 3 3 4 3 3 3 4 4 5 5 5 5 4 3 6 5 5 6 7 7 7 8 9 7
1 0 1 2 2 2 2 2 3 3 3 2 3 3 3 3 3 3 3 3 4 4 4 4 4 4 6 7 5 4 5 7 7 7 7 7 9 10
1 1 2 2 2 2 2 2 3 3 2 2 3 3 3 3 3 3 3 4 4 4 5 4 3 4 5 6 6 6 9 7 6 8 8 8 8 11
2 2 2 2 2 2 2 2 3 3 3 3 3 3 3 2 3 3 3 5 5 4 5 5 6 8 5 4 5 6 6 9 9 8 8 8 8 7
2 2 2 2 2 2 2 3 3 3 3 3 3 2 2 2 3 3 4 4 4 4 5 5 5 5 3 4 7 8 8 9 10 13 11 9 6 5
2 2 2 2 2 2 2 3 3 3 2 2 2 2 2 2 3 3 4 4 4 5 5 5 5 4 4 5 6 7 9 9 8 8 8 12 14 15
Wind_Direction
211 215 225 239 238 229 213 205 216 264 275 264 264 279 303 301 299 303 303 306 308 304 304 304 305 306 306 307 308 308 308 307 308 307 305 305 306 307
214 214 229 240 241 244 231 231 221 236 263 261 257 288 304 304 301 303 296 303 307 306 305 305 306 306 307 308 308 308 308 307 308 307 306 306 306 306
221 222 235 232 236 250 244 238 239 235 259 281 277 291 282 285 304 300 299 299 298 304 307 308 308 308 310 310 309 308 309 308 308 307 306 306 307 307
225 225 240 240 241 246 243 241 244 239 246 272 286 286 280 280 291 300 310 305 300 301 304 305 306 309 310 312 312 311 310 308 309 310 309 308 308 308
221 227 237 231 248 252 248 251 252 256 248 263 284 292 292 296 302 307 308 303 300 301 302 301 303 306 307 307 309 309 308 307 308 310 311 310 310 311
225 234 242 238 240 243 251 252 258 260 257 267 281 292 294 300 302 307 309 300 303 307 300 302 304 306 306 307 308 308 306 307 308 309 310 310 309 310
240 250 258 261 262 251 256 255 255 261 263 266 278 290 293 307 300 298 299 309 301 296 303 303 304 302 303 305 306 306 308 308 309 309 310 310 309 309
248 269 277 279 278 283 280 278 270 262 260 260 272 277 282 285 289 293 301 308 301 294 306 302 299 297 298 298 302 306 307 308 309 309 311 310 309 309
243 259 283 295 304 276 281 298 296 291 279 260 263 268 274 276 277 280 279 288 288 294 302 292 292 291 293 297 303 303 307 311 313 314 313 312 312 311
249 249 257 273 275 276 269 285 287 287 289 279 264 273 279 280 264 268 273 287 292 287 289 285 291 291 302 298 298 304 313 318 319 317 315 315 314 314
280 277 274 269 285 296 289 284 300 302 313 309 307 308 308 307 308 310 305 308 303 297 280 278 295 309 303 291 301 313 316 317 318 320 321 320 318 317
299 299 304 297 295 299 281 263 279 290 300 320 323 321 323 314 311 296 266 283 305 294 280 302 298 324 311 283 293 309 313 314 320 321 321 321 321 320
279 294 297 306 303 304 310 286 283 302 307 310 316 320 330 327 321 310 288 265 281 281 278 298 292 296 283 296 300 300 306 311 316 316 319 322 323 322
256 269 285 309 317 325 325 316 319 327 329 319 322 322 321 316 314 312 304 293 279 272 273 273 273 283 295 298 295 301 308 306 309 313 315 319 320 319
263 279 300 320 335 340 332 330 334 335 320 316 310 308 305 302 312 318 323 321 313 306 296 282 273 278 277 282 290 297 307 305 303 310 312 312 311 313
303 313 340 350 348 334 333 337 334 316 315 305 303 303 305 307 311 312 311 319 320 315 315 305 290 274 282 280 280 288 293 293 307 312 312 309 308 303
301 39 22 353 341 336 336 338 340 339 335 321 311 312 315 317 320 319 312 318 315 313 320 318 312 295 272 270 279 283 290 294 299 309 313 311 306 302
12 55 318 304 303 310 317 325 330 325 321 318 313 310 312 316 321 325 325 322 316 315 317 319 327 330 324 290 241 264 285 292 303 307 307 307 309 307
28 247 274 279 293 300 304 310 310 315 315 311 308 307 311 315 319 322 326 324 319 316 316 316 323 330 326 319 301 258 283 302 309 308 303 299 300 303
308 268 269 278 285 291 296 303 303 307 307 308 307 307 310 313 316 316 314 314 314 315 315 313 312 310 300 298 297 294 295 292 299 305 306 300 292 295
299 299 287 279 282 290 293 294 291 290 292 298 303 303 305 308 309 309 309 310 313 309 309 307 301 310 301 297 299 300 297 297 296 296 303 304 306 307
286 288 289 282 282 286 286 289 293 293 296 298 299 300 299 298 297 300 303 304 304 301 299 302 307 312 305 297 300 302 306 310 310 307 299 290 296 302
281 283 285 285 283 279 280 284 285 288 288 289 294 296 294 295 297 298 299 298 300 302 306 309 314 309 297 292 296 301 305 312 317 322 314 312 307 298
Height
1521 1521 1521 1520 1520 1520 1519 1519 1518 1514 1511 1510 1510 1509 1508 1506 1504 1502 1499 1497 1495 1493 1490 1488 1486 1484 1482 1479 1477 1474 1472 1469 1467 1464 1462 1459 1457 1454
1517 1516 1516 1516 1515 1515 1514 1514 1513 1512 1508 1506 1505 1504 1503 1501 1499 1497 1495 1493 1490 1488 1485 1483 1481 1478 1476 1474 1471 1469 1466 1464 1461 1459 1456 1454 1451 1448
1512 1512 1512 1512 1511 1510 1510 1509 1508 1507 1504 1501 1501 1499 1498 1496 1494 1492 1490 1487 1485 1483 1480 1478 1475 1473 1471 1468 1466 1463 1460 1458 1456 1453 1451 1448 1445 1443
1508 1508 1508 1507 1506 1506 1505 1504 1503 1502 1500 1497 1495 1493 1492 1490 1488 1486 1484 1482 1480 1478 1475 1473 1470 1468 1465 1463 1460 1458 1455 1452 1450 1447 1445 1442 1440 1437
1504 1504 1503 1503 1501 1501 1500 1499 1498 1497 1495 1493 1490 1488 1486 1485 1483 1481 1479 1476 1474 1472 1470 1468 1465 1463 1460 1457 1455 1452 1449 1447 1444 1442 1439 1436 1434 1431
1500 1500 1499 1498 1497 1496 1495 1494 1493 1492 1490 1488 1485 1483 1481 1479 1477 1475 1472 1470 1468 1467 1464 1463 1460 1457 1455 1452 1449 1446 1444 1441 1439 1436 1433 1431 1428 1425
1496 1496 1495 1494 1493 1492 1491 1490 1489 1487 1485 1483 1480 1478 1476 1474 1472 1470 1467 1464 1462 1461 1459 1457 1454 1451 1449 1447 1444 1441 1439 1436 1433 1431 1428 1425 1423 1420
1492 1491 1490 1489 1488 1487 1486 1485 1485 1483 1480 1478 1475 1473 1471 1469 1467 1465 1463 1460 1456 1456 1454 1451 1449 1446 1444 1442 1439 1436 1434 1431 1428 1426 1423 1420 1417 1414
1487 1486 1486 1485 1484 1483 1481 1480 1479 1478 1476 1474 1471 1468 1466 1464 1463 1460 1458 1456 1453 1451 1449 1445 1443 1441 1439 1436 1434 1432 1429 1427 1424 1421 1418 1415 1412 1409
1483 1482 1481 1480 1479 1478 1477 1475 1474 1473 1471 1469 1467 1465 1463 1460 1459 1457 1454 1451 1449 1447 1445 1441 1438 1436 1434 1432 1430 1427 1425 1422 1419 1416 1413 1410 1407 1404
1479 1478 1477 1476 1475 1474 1472 1470 1469 1467 1466 1464 1462 1460 1458 1456 1454 1452 1449 1446 1443 1441 1440 1438 1434 1430 1428 1426 1425 1423 1420 1418 1415 1412 1408 1405 1402 1399
1474 1473 1473 1471 1470 1469 1468 1466 1463 1462 1461 1459 1458 1456 1454 1452 1450 1448 1446 1443 1440 1437 1436 1434 1431 1428 1423 1421 1420 1419 1416 1413 1411 1407 1404 1400 1397 1394
1470 1469 1468 1467 1466 1465 1463 1462 1460 1458 1456 1454 1452 1451 1449 1448 1446 1444 1442 1440 1438 1435 1434 1431 1428 1426 1423 1418 1415 1414 1412 1409 1405 1402 1399 1396 1393 1390
1466 1465 1464 1463 1462 1461 1459 1457 1456 1454 1452 1450 1448 1446 1445 1444 1442 1440 1438 1436 1435 1433 1431 1429 1426 1423 1420 1416 1412 1409 1407 1405 1401 1398 1395 1391 1388 1385
1463 1461 1461 1459 1458 1456 1455 1453 1452 1450 1448 1446 1444 1443 1442 1440 1438 1436 1434 1433 1431 1429 1427 1425 1423 1420 1418 1414 1410 1406 1403 1400 1397 1394 1390 1386 1383 1380
1459 1458 1457 1456 1454 1453 1451 1450 1448 1447 1445 1443 1442 1440 1439 1437 1435 1433 1431 1429 1427 1425 1424 1422 1419 1417 1414 1411 1408 1403 1401 1397 1393 1390 1386 1382 1380 1376
1455 1454 1453 1452 1451 1450 1448 1447 1445 1444 1442 1441 1439 1437 1435 1434 1432 1430 1428 1426 1424 1421 1419 1418 1416 1414 1411 1408 1404 1401 1398 1394 1391 1387 1382 1378 1375 1373
1453 1451 1450 1449 1448 1446 1445 1443 1442 1441 1439 1438 1436 1435 1433 1431 1429 1427 1426 1424 1421 1419 1417 1414 1412 1409 1407 1404 1402 1398 1395 1391 1387 1384 1380 1375 1370 1368
1449 1448 1447 1446 1445 1444 1442 1441 1439 1438 1437 1435 1434 1432 1430 1428 1426 1424 1423 1421 1419 1417 1415 1412 1410 1407 1403 1400 1398 1396 1392 1388 1384 1380 1377 1372 1367 1364
1446 1445 1444 1443 1442 1441 1440 1438 1437 1436 1434 1433 1431 1429 1428 1426 1424 1422 1420 1418 1417 1414 1412 1410 1408 1406 1403 1400 1395 1392 1391 1386 1381 1376 1373 1369 1364 1361
1443 1442 1441 1440 1439 1438 1437 1436 1434 1433 1431 1430 1428 1427 1425 1423 1422 1420 1418 1417 1415 1412 1410 1408 1406 1405 1402 1398 1394 1390 1387 1384 1380 1375 1370 1365 1360 1355
1440 1439 1438 1437 1436 1435 1434 1433 1431 1430 1429 1427 1426 1424 1422 1421 1419 1418 1416 1414 1412 1410 1408 1406 1404 1402 1399 1396 1391 1387 1383 1380 1377 1374 1369 1365 1360 1354
1437 1436 1435 1435 1434 1433 1431 1430 1429 1427 1426 1424 1423 1421 1420 1419 1417 1416 1414 1412 1410 1408 1406 1404 1401 1399 1396 1393 1390 1385 1381 1377 1373 1369 1366 1363 1359 1355